FW5282 Weather Reports


Display with metric or nautical units.
time (UTC)temp
F
wind
direction
speed
MPH
gust
MPH
rain 1hr
in
rain 24hr
in
rain mn
in
humidity
%
barometer
mb
20200410103735 74 111 0.0 7.0 0.00 0.00 0.00 43 1022.3
20200410103250 74 123 3.0 7.0 0.00 0.00 0.00 43 1022.4
20200410102748 74 108 2.0 6.0 0.00 0.00 0.00 45 1022.5
20200410102235 74 74 0.0 7.0 0.00 0.00 0.00 42 1022.4
20200410101739 73 77 4.0 7.0 0.00 0.00 0.00 42 1022.5
20200410101235 73 57 3.0 6.0 0.00 0.00 0.00 41 1022.4
20200410100750 73 121 3.0 7.0 0.00 0.00 0.00 45 1022.4
20200410100240 72 112 3.0 7.0 0.00 0.00 0.00 44 1022.6
20200410095748 72 101 3.0 6.0 0.00 0.00 0.00 46 1022.5
20200410095248 71 105 3.0 6.0 0.00 0.00 0.00 47 1022.6
20200410094741 71 90 2.0 7.0 0.00 0.00 0.00 47 1022.6
20200410094238 70 95 4.0 7.0 0.00 0.00 0.00 46 1022.6
20200410093736 70 63 1.0 6.0 0.00 0.00 0.00 47 1022.6
20200410093238 70 104 3.0 6.0 0.00 0.00 0.00 47 1022.5
20200410092753 69 78 2.0 5.0 0.00 0.00 0.00 47 1022.6
20200410092247 69 74 0.0 5.0 0.00 0.00 0.00 50 1022.6
20200410091741 69 54 1.0 5.0 0.00 0.00 0.00 49 1022.6
20200410090244 68 132 2.0 5.0 0.00 0.00 0.00 49 1022.7
20200410085745 68 128 1.0 6.0 0.00 0.00 0.00 53 1022.7
20200410085242 67 107 2.0 6.0 0.00 0.00 0.00 51 1022.7
20200410084740 66 107 2.0 5.0 0.00 0.00 0.00 52 1022.7
20200410084240 65 88 1.0 3.0 0.00 0.00 0.00 55 1022.7
20200410083746 64 88 1.0 5.0 0.00 0.00 0.00 56 1022.7
20200410083244 63 70 2.0 6.0 0.00 0.00 0.00 56 1022.7
20200410082745 63 68 1.0 6.0 0.00 0.00 0.00 57 1022.7
20200410082242 62 69 1.0 6.0 0.00 0.00 0.00 59 1022.6
20200410081739 61 48 0.0 4.0 0.00 0.00 0.00 60 1022.6
20200410081243 60 46 0.0 4.0 0.00 0.00 0.00 61 1022.4
20200410080734 60 36 0.0 4.0 0.00 0.00 0.00 65 1022.5
20200410080246 59 36 0.0 2.0 0.00 0.00 0.00 67 1022.5
20200410075746 58 36 0.0 2.0 0.00 0.00 0.00 67 1022.5
20200410075237 58 36 0.0 1.0 0.00 0.00 0.00 68 1022.5
20200410074743 57 34 0.0 0.0 0.00 0.00 0.00 69 1022.5
20200410074232 57 34 0.0 0.0 0.00 0.00 0.00 69 1022.6
20200410073734 56 34 0.0 5.0 0.00 0.00 0.00 71 1022.6
20200410073240 55 34 0.0 5.0 0.00 0.00 0.00 71 1022.6
20200410072736 55 34 0.0 5.0 0.00 0.00 0.00 72 1022.6
20200410072239 54 34 2.0 5.0 0.00 0.00 0.00 72 1022.6
20200410071744 54 34 2.0 4.0 0.00 0.00 0.00 72 1022.7
20200410071244 54 35 1.0 4.0 0.00 0.00 0.00 72 1022.7
20200410070751 53 30 1.0 2.0 0.00 0.00 0.00 72 1022.7
20200410070240 53 25 1.0 2.0 0.00 0.00 0.00 73 1022.7
20200410065736 53 23 0.0 0.0 0.00 0.00 0.00 74 1022.7
20200410064737 52 12 0.0 0.0 0.00 0.00 0.00 74 1022.6
20200410064250 51 12 0.0 0.0 0.00 0.00 0.00 74 1022.5
20200410063732 51 12 0.0 0.0 0.00 0.00 0.00 75 1022.5
20200410063234 51 12 0.0 0.0 0.00 0.00 0.00 75 1022.4
20200410062739 50 12 0.0 0.0 0.00 0.00 0.00 76 1022.4
20200410062237 50 12 0.0 0.0 0.00 0.00 0.00 77 1022.4
20200410061746 49 12 0.0 0.0 0.00 0.00 0.00 79 1022.3
20200410061246 49 11 0.0 0.0 0.00 0.00 0.00 80 1022.3
20200410060735 48 11 0.0 0.0 0.00 0.00 0.00 81 1022.2
20200410060239 47 11 0.0 0.0 0.00 0.00 0.00 81 1022.2
20200410055746 47 11 0.0 0.0 0.00 0.00 0.00 82 1022.1
20200410055241 46 11 0.0 0.0 0.00 0.00 0.00 82 1022.1
20200410054738 46 11 0.0 0.0 0.00 0.00 0.00 82 1022.0
20200410054239 46 11 0.0 0.0 0.00 0.00 0.00 82 1022.0
20200410053738 46 11 0.0 0.0 0.00 0.00 0.00 82 1021.9
20200410053241 45 11 0.0 0.0 0.00 0.00 0.00 82 1021.9
20200410052740 45 17 0.0 0.0 0.00 0.00 0.00 82 1021.9
20200410052241 45 17 0.0 0.0 0.00 0.00 0.00 81 1021.9
20200410051740 45 17 0.0 0.0 0.00 0.00 0.00 81 1021.9
20200410051241 45 17 0.0 0.0 0.00 0.00 0.00 81 1021.9
20200410050746 45 22 0.0 0.0 0.00 0.00 0.00 81 1021.9
20200410050231 45 22 0.0 0.0 0.00 0.00 0.00 81 1021.8
20200410045748 45 22 0.0 0.0 0.00 0.00 0.00 80 1021.9
20200410045245 45 22 0.0 0.0 0.00 0.00 0.00 80 1021.8
20200410044747 46 22 0.0 0.0 0.00 0.00 0.00 80 1021.8
20200410044240 46 22 0.0 0.0 0.00 0.00 0.00 80 1021.8
20200410043745 46 22 0.0 0.0 0.00 0.00 0.00 80 1021.8
20200410043236 46 22 0.0 0.0 0.00 0.00 0.00 80 1021.8
20200410042740 46 22 0.0 0.0 0.00 0.00 0.00 80 1021.9
20200410042242 46 22 0.0 0.0 0.00 0.00 0.00 80 1021.9
20200410041741 46 22 0.0 0.0 0.00 0.00 0.00 80 1021.8
20200410041243 46 22 0.0 0.0 0.00 0.00 0.00 80 1021.9
20200410040740 46 22 0.0 0.0 0.00 0.00 0.00 79 1021.8
20200410040257 46 22 0.0 0.0 0.00 0.00 0.00 79 1021.7
20200410035749 46 22 0.0 0.0 0.00 0.00 0.00 80 1021.8
20200410035243 46 22 0.0 0.0 0.00 0.00 0.00 79 1021.8
20200410034740 46 22 0.0 0.0 0.00 0.00 0.00 79 1021.7
20200410034241 46 22 0.0 0.0 0.00 0.00 0.00 79 1021.7
20200410033749 46 22 0.0 0.0 0.00 0.00 0.00 79 1021.7
20200410033232 47 22 0.0 0.0 0.00 0.00 0.00 79 1021.7
20200410032731 47 22 0.0 0.0 0.00 0.00 0.00 79 1021.7
20200410032232 47 22 0.0 0.0 0.00 0.00 0.00 78 1021.7
20200410031739 47 22 0.0 0.0 0.00 0.00 0.00 78 1021.7
20200410031233 47 22 0.0 0.0 0.00 0.00 0.00 78 1021.7
20200410030738 47 22 0.0 0.0 0.00 0.00 0.00 78 1021.7
20200410030242 47 22 0.0 0.0 0.00 0.00 0.00 78 1021.7
20200410025735 47 22 0.0 0.0 0.00 0.00 0.00 77 1021.7
20200410025244 48 22 0.0 0.0 0.00 0.00 0.00 77 1021.7
20200410024750 48 22 0.0 0.0 0.00 0.00 0.00 77 1021.7
20200410024249 48 22 0.0 0.0 0.00 0.00 0.00 77 1021.8
20200410023734 48 22 0.0 0.0 0.00 0.00 0.00 77 1021.8
20200410023242 48 22 0.0 0.0 0.00 0.00 0.00 77 1021.7
20200410022748 48 22 0.0 0.0 0.00 0.00 0.00 77 1021.8
20200410022243 48 22 0.0 0.0 0.00 0.00 0.00 76 1021.8
20200410021732 48 22 0.0 0.0 0.00 0.00 0.00 76 1021.7
20200410021244 49 22 0.0 0.0 0.00 0.00 0.00 76 1021.7
20200410020742 49 22 0.0 0.0 0.00 0.00 0.00 75 1021.7
20200410020240 49 22 0.0 0.0 0.00 0.00 0.00 75 1021.8
20200410015739 49 22 0.0 0.0 0.00 0.00 0.00 75 1021.8
20200410015247 49 22 0.0 0.0 0.00 0.00 0.00 76 1021.8
20200410014731 49 22 0.0 0.0 0.00 0.00 0.00 76 1021.8
20200410014250 49 22 0.0 0.0 0.00 0.00 0.00 76 1021.8
20200410013735 49 22 0.0 0.0 0.00 0.00 0.00 75 1021.9
20200410013240 49 22 0.0 0.0 0.00 0.00 0.00 75 1021.8
20200410012736 49 72 0.0 0.0 0.00 0.00 0.00 75 1021.9
20200410012241 49 72 0.0 0.0 0.00 0.00 0.00 74 1021.9
20200410011740 50 72 0.0 0.0 0.00 0.00 0.00 75 1021.9
20200410011245 50 74 0.0 0.0 0.00 0.00 0.00 74 1021.9
20200410010748 50 74 0.0 0.0 0.00 0.00 0.00 74 1021.9
20200410010247 50 74 0.0 0.0 0.00 0.00 0.00 73 1021.9
20200410005733 50 74 0.0 0.0 0.00 0.00 0.00 72 1022.0
20200410005239 51 74 0.0 0.0 0.00 0.00 0.00 72 1021.9
20200410004740 51 74 0.0 0.0 0.00 0.00 0.00 72 1022.0
20200410004232 51 74 0.0 0.0 0.00 0.00 0.00 72 1021.9
20200410003735 51 74 0.0 0.0 0.00 0.00 0.00 72 1021.9
20200410003250 51 74 0.0 0.0 0.00 0.00 0.00 72 1021.9
20200410002733 51 74 0.0 0.0 0.00 0.00 0.00 72 1021.9
20200410002243 51 74 0.0 0.0 0.00 0.00 0.00 72 1021.9
20200410001748 51 74 0.0 0.0 0.00 0.00 0.00 71 1021.9
20200410001240 52 74 0.0 0.0 0.00 0.00 0.00 71 1022.0
20200410000745 52 74 0.0 0.0 0.00 0.00 0.00 71 1021.9
20200410000244 52 74 0.0 0.0 0.00 0.00 0.00 70 1022.0
20200409235742 52 74 0.0 0.0 0.00 0.00 0.00 70 1022.0
20200409235246 52 74 0.0 0.0 0.00 0.00 0.00 70 1022.0
20200409234745 52 74 0.0 0.0 0.00 0.00 0.00 70 1022.0
20200409234236 52 74 0.0 0.0 0.00 0.00 0.00 69 1022.0
20200409233736 53 74 0.0 0.0 0.00 0.00 0.00 69 1022.0
20200409233237 53 74 0.0 0.0 0.00 0.00 0.00 68 1022.0
20200409232747 53 74 0.0 0.0 0.00 0.00 0.00 67 1022.1
20200409232242 54 74 0.0 0.0 0.00 0.00 0.00 66 1022.0
20200409231751 54 74 0.0 0.0 0.00 0.00 0.00 66 1022.0
20200409231245 54 74 0.0 0.0 0.00 0.00 0.00 66 1022.0
20200409230747 54 74 0.0 0.0 0.00 0.00 0.00 65 1022.0
20200409230248 54 74 0.0 0.0 0.00 0.00 0.00 65 1022.0
20200409225739 54 74 0.0 0.0 0.00 0.00 0.00 65 1021.9
20200409225250 55 74 0.0 0.0 0.00 0.00 0.00 64 1022.0
20200409224736 55 74 0.0 0.0 0.00 0.00 0.00 63 1021.9
20200409224243 55 74 0.0 0.0 0.00 0.00 0.00 63 1022.0
20200409223744 55 74 0.0 0.0 0.00 0.00 0.00 63 1022.0
20200409223244 55 74 0.0 0.0 0.00 0.00 0.00 62 1022.0
20200409222731 55 74 0.0 0.0 0.00 0.00 0.00 62 1022.0
20200409222247 56 74 0.0 0.0 0.00 0.00 0.00 61 1022.0
20200409221750 56 74 0.0 0.0 0.00 0.00 0.00 61 1022.0
20200409221245 56 74 0.0 0.0 0.00 0.00 0.00 61 1021.9
20200409220743 56 74 0.0 0.0 0.00 0.00 0.00 60 1022.0
20200409220240 56 74 0.0 0.0 0.00 0.00 0.00 60 1022.0
20200409215737 57 74 0.0 0.0 0.00 0.00 0.00 60 1021.9
20200409215248 57 74 0.0 0.0 0.00 0.00 0.00 59 1021.9
20200409214735 57 74 0.0 0.0 0.00 0.00 0.00 58 1021.9
20200409214250 57 74 0.0 0.0 0.00 0.00 0.00 58 1021.9
20200409213736 58 74 0.0 0.0 0.00 0.00 0.00 57 1022.0
20200409213239 58 74 0.0 0.0 0.00 0.00 0.00 55 1021.9
20200409212737 59 74 0.0 0.0 0.00 0.00 0.00 55 1022.0
20200409212238 59 74 0.0 0.0 0.00 0.00 0.00 54 1022.0
20200409211746 59 74 0.0 0.0 0.00 0.00 0.00 53 1021.9
20200409211248 59 74 0.0 0.0 0.00 0.00 0.00 53 1021.9
20200409210731 60 74 0.0 0.0 0.00 0.00 0.00 52 1022.0
20200409210230 60 74 0.0 0.0 0.00 0.00 0.00 51 1022.0
20200409205731 60 74 0.0 0.0 0.00 0.00 0.00 50 1022.0
20200409205246 61 74 0.0 0.0 0.00 0.00 0.00 50 1022.0
20200409204750 61 74 0.0 0.0 0.00 0.00 0.00 49 1022.0
20200409204250 61 74 0.0 0.0 0.00 0.00 0.00 49 1022.0
20200409203739 61 74 0.0 0.0 0.00 0.00 0.00 49 1021.9
20200409203239 61 74 0.0 0.0 0.00 0.00 0.00 48 1022.0
20200409202751 61 74 0.0 0.0 0.00 0.00 0.00 49 1021.9
20200409202236 61 74 0.0 0.0 0.00 0.00 0.00 49 1021.9
20200409201739 61 74 0.0 0.0 0.00 0.00 0.00 49 1021.8
20200409201239 62 74 0.0 0.0 0.00 0.00 0.00 48 1021.8
20200409200743 62 74 0.0 0.0 0.00 0.00 0.00 48 1021.8
20200409200241 63 74 0.0 0.0 0.00 0.00 0.00 47 1021.7
20200409195742 63 74 0.0 0.0 0.00 0.00 0.00 46 1021.7
20200409195249 63 74 0.0 0.0 0.00 0.00 0.00 46 1021.7
20200409194745 64 74 0.0 0.0 0.00 0.00 0.00 45 1021.6
20200409194246 64 74 0.0 0.0 0.00 0.00 0.00 42 1021.6
20200409193742 64 74 0.0 10.0 0.00 0.00 0.00 42 1021.5
20200409193246 64 74 0.0 10.0 0.00 0.00 0.00 43 1021.6
20200409192730 64 74 1.0 6.0 0.00 0.00 0.00 43 1021.4
20200409192238 64 74 0.0 0.0 0.00 0.00 0.00 43 1021.4
20200409191730 64 75 0.0 2.0 0.00 0.00 0.00 43 1021.4
20200409191256 65 75 0.0 1.0 0.00 0.00 0.00 43 1021.4
20200409190749 65 73 0.0 0.0 0.00 0.00 0.00 43 1021.3
20200409190233 65 73 0.0 1.0 0.00 0.00 0.00 43 1021.2
20200409185739 66 71 0.0 1.0 0.00 0.00 0.00 43 1021.2
20200409185249 66 76 0.0 0.0 0.00 0.00 0.00 42 1021.1
20200409184746 67 76 0.0 1.0 0.00 0.00 0.00 41 1021.2
20200409184248 67 74 0.0 1.0 0.00 0.00 0.00 41 1021.2
20200409183749 68 73 0.0 1.0 0.00 0.00 0.00 41 1021.1
20200409183248 68 70 0.0 2.0 0.00 0.00 0.00 40 1021.0
20200409182734 69 68 0.0 4.0 0.00 0.00 0.00 40 1021.0
20200409182240 69 81 0.0 4.0 0.00 0.00 0.00 40 1020.9
20200409181738 70 80 0.0 1.0 0.00 0.00 0.00 39 1021.0
20200409181242 70 78 0.0 0.0 0.00 0.00 0.00 38 1020.9
20200409180732 70 78 0.0 0.0 0.00 0.00 0.00 37 1020.9
20200409180254 71 78 0.0 2.0 0.00 0.00 0.00 37 1020.9
20200409175735 71 74 0.0 2.0 0.00 0.00 0.00 36 1020.9
20200409175240 72 84 1.0 2.0 0.00 0.00 0.00 35 1020.9
20200409174731 72 80 1.0 2.0 0.00 0.00 0.00 32 1020.9
20200409174240 73 83 1.0 2.0 0.00 0.00 0.00 33 1020.9
20200409173743 73 94 0.0 1.0 0.00 0.00 0.00 33 1020.8
20200409173245 74 96 0.0 4.0 0.00 0.00 0.00 32 1020.8
20200409172738 74 76 1.0 6.0 0.00 0.00 0.00 32 1020.8
20200409172248 74 71 2.0 7.0 0.00 0.00 0.00 31 1020.8
20200409171745 75 75 1.0 7.0 0.00 0.00 0.00 30 1020.7
20200409171246 75 90 1.0 5.0 0.00 0.00 0.00 30 1020.7
20200409170747 75 111 2.0 5.0 0.00 0.00 0.00 27 1020.7
20200409170248 76 109 1.0 6.0 0.00 0.00 0.00 29 1020.7
20200409165732 76 111 1.0 6.0 0.00 0.00 0.00 27 1020.7
20200409165231 76 109 2.0 6.0 0.00 0.00 0.00 28 1020.7
20200409164730 76 109 3.0 8.0 0.00 0.00 0.00 26 1020.7
20200409164243 76 119 5.0 9.0 0.00 0.00 0.00 26 1020.7
20200409163749 76 129 5.0 10.0 0.00 0.00 0.00 28 1020.6
20200409163245 77 107 5.0 10.0 0.00 0.00 0.00 28 1020.6
20200409162735 77 107 4.0 8.0 0.00 0.00 0.00 27 1020.6
20200409162241 77 106 2.0 7.0 0.00 0.00 0.00 28 1020.6
20200409161745 77 94 3.0 8.0 0.00 0.00 0.00 27 1020.6
20200409161241 77 74 4.0 10.0 0.00 0.00 0.00 27 1020.6
20200409160744 78 93 5.0 10.0 0.00 0.00 0.00 27 1020.6
20200409160238 78 71 5.0 10.0 0.00 0.00 0.00 26 1020.6
20200409155730 78 93 4.0 10.0 0.00 0.00 0.00 26 1020.6
20200409155230 78 72 3.0 10.0 0.00 0.00 0.00 28 1020.6
20200409154734 78 108 4.0 8.0 0.00 0.00 0.00 28 1020.7
20200409154239 78 120 2.0 8.0 0.00 0.00 0.00 26 1020.6
20200409153747 78 107 1.0 10.0 0.00 0.00 0.00 27 1020.6
20200409152732 78 107 5.0 10.0 0.00 0.00 0.00 26 1020.7
20200409152243 79 84 7.0 10.0 0.00 0.00 0.00 25 1020.6
20200409151743 79 65 5.0 15.0 0.00 0.00 0.00 26 1020.6
20200409151236 79 76 3.0 9.0 0.00 0.00 0.00 26 1020.7
20200409150739 79 80 6.0 9.0 0.00 0.00 0.00 26 1020.7
20200409150237 79 82 6.0 9.0 0.00 0.00 0.00 26 1020.7
20200409145733 79 53 2.0 9.0 0.00 0.00 0.00 23 1020.7
20200409145236 80 109 3.0 7.0 0.00 0.00 0.00 27 1020.8
20200409144742 79 63 3.0 9.0 0.00 0.00 0.00 25 1020.9
20200409144246 79 59 0.0 9.0 0.00 0.00 0.00 23 1020.9
20200409143747 79 36 0.0 8.0 0.00 0.00 0.00 22 1020.9
20200409143248 79 52 3.0 8.0 0.00 0.00 0.00 23 1021.0
20200409142731 79 73 1.0 9.0 0.00 0.00 0.00 24 1021.1
20200409142242 79 58 2.0 9.0 0.00 0.00 0.00 23 1021.2
20200409141744 79 94 2.0 10.0 0.00 0.00 0.00 24 1021.2
20200409141234 79 79 6.0 10.0 0.00 0.00 0.00 25 1021.3
20200409140740 79 144 4.0 11.0 0.00 0.00 0.00 23 1021.3
20200409140239 79 101 6.0 11.0 0.00 0.00 0.00 24 1021.4
20200409135746 79 82 6.0 10.0 0.00 0.00 0.00 22 1021.3
20200409135244 79 65 1.0 9.0 0.00 0.00 0.00 22 1021.4
20200409134738 79 70 3.0 9.0 0.00 0.00 0.00 27 1021.4
20200409134243 79 105 4.0 10.0 0.00 0.00 0.00 26 1021.4
20200409133748 79 94 2.0 10.0 0.00 0.00 0.00 26 1021.5
20200409133248 79 100 2.0 10.0 0.00 0.00 0.00 27 1021.6
20200409132735 79 153 5.0 10.0 0.00 0.00 0.00 25 1021.6
20200409132303 79 175 2.0 11.0 0.00 0.00 0.00 25 1021.6
20200409131742 79 167 3.0 11.0 0.00 0.00 0.00 25 1021.6
20200409131243 79 139 6.0 10.0 0.00 0.00 0.00 26 1021.7
20200409130748 79 110 4.0 8.0 0.00 0.00 0.00 26 1021.7
20200409130245 79 105 3.0 8.0 0.00 0.00 0.00 29 1021.7
20200409125730 79 123 1.0 8.0 0.00 0.00 0.00 29 1021.7
20200409124632 78 161 0.0 8.0 0.00 0.00 0.00 26 1021.8
20200409124148 78 63 2.0 8.0 0.00 0.00 0.00 25 1021.9
20200409123650 78 81 1.0 9.0 0.00 0.00 0.00 28 1021.9
20200409123147 78 146 3.0 9.0 0.00 0.00 0.00 28 1021.9
20200409122642 78 107 2.0 9.0 0.00 0.00 0.00 28 1022.0
20200409122133 78 101 0.0 8.0 0.00 0.00 0.00 25 1022.1
20200409121648 78 143 6.0 9.0 0.00 0.00 0.00 25 1022.2
20200409121145 78 106 6.0 9.0 0.00 0.00 0.00 29 1022.2
20200409120650 78 88 4.0 10.0 0.00 0.00 0.00 31 1022.1
20200409120138 78 163 4.0 10.0 0.00 0.00 0.00 27 1022.2
20200409115650 77 130 2.0 8.0 0.00 0.00 0.00 32 1022.2
20200409115141 77 98 3.0 7.0 0.00 0.00 0.00 32 1022.3
20200409114640 77 177 2.0 10.0 0.00 0.00 0.00 33 1022.3
20200409114140 77 113 3.0 10.0 0.00 0.00 0.00 31 1022.3
20200409113640 77 118 4.0 10.0 0.00 0.00 0.00 32 1022.4
20200409113147 77 146 6.0 9.0 0.00 0.00 0.00 30 1022.4
20200409112647 76 85 0.0 9.0 0.00 0.00 0.00 33 1022.4
20200409112139 76 93 1.0 9.0 0.00 0.00 0.00 34 1022.5
20200409111644 75 58 4.0 8.0 0.00 0.00 0.00 35 1022.4
20200409111133 75 67 1.0 9.0 0.00 0.00 0.00 35 1022.5
20200409110631 76 109 4.0 9.0 0.00 0.00 0.00 36 1022.6
20200409110145 76 119 4.0 9.0 0.00 0.00 0.00 35 1022.6
20200409105640 75 113 4.0 7.0 0.00 0.00 0.00 37 1022.6
20200409105135 75 139 1.0 8.0 0.00 0.00 0.00 35 1022.6
20200409104631 74 59 4.0 8.0 0.00 0.00 0.00 35 1022.7